Location: Central Falls
(41.8900°N, 71.3929°W)
Time: 06:52:06
(UTC+00:00)

Altair - Pass Details

Date: 15 December 2023
Orbit: 1501 x 1682 km, 47.2° (Epoch: 29 February)

Event Time Altitude Azimuth Distance (km) Brightness Sun altitude
Rises 15:02:09 0° 292° (WNW) 4,803 9.7 21.0°
Reaches altitude 10° 15:05:18 10° 294° (WNW) 3,792 9.2 21.2°
Maximum altitude 15:14:56 85° 23° (NNE) 1,550 7.9 21.9°
Drops below altitude 10° 15:24:13 10° 113° (ESE) 3,664 10.2 22.5°
Sets 15:27:12 0° 114° (ESE) 4,634 10.6 22.7°
